Online Auction of Automotive Machine Shop Equipment for Sale in Penngrove, CA

Lot #0100: Sunnen Automatic Cylinder Re-Sizing Machine

Bidding is closed.
High Bid:$5,350.00
NA
Bidding Ended: Thu, Mar 7  10:00:00 am PT
High Bidder: FT
Bid Increment: $100.00
Starting Bid: $5.00
Item Location: Penngrove, CA 94951
Item has been viewed 1,505 times.

Sunnen Automatic Cylinder Re-Sizing Machine

  • Model: CK-10
  • Serial: 2741
  • Includes:
  • Sunnen Honing Load Meter
  • Manual Right/Left/Up/Down Movement Controls
  • Sunnen CK-10 D Power Terminal
  • Assorted Milling Blocks
  • (2) Rear Coolant Cylinders
  • Century 2.0 HP Motor
  • 3 Phase
  • 1745 RPM
  • Sunnen CK-3355 Midget Junior Stone Inserter
  • Side Mounted Tool Holder
  • Winsmith Speed Reducer
  • Shop Footprint: 63” x 65” x 80”
  • Missing Tool Holder
Bid Date Bid Amount Bidder
Mar 7, 2019 - 9:54:59 AM $5,350.00 iFT
Mar 7, 2019 - 9:54:59 AM $5,250.00 ilsgarage
Mar 7, 2019 - 7:54:23 AM $5,050.00 iFT
Mar 7, 2019 - 7:54:23 AM $5,000.00 ilsgarage
Mar 7, 2019 - 6:35:49 AM $4,550.00 iFT
Mar 7, 2019 - 6:35:49 AM $4,500.00 ilsgarage
Mar 7, 2019 - 6:35:37 AM $4,150.00 iFT
Mar 7, 2019 - 6:35:37 AM $4,100.00 ilsgarage
Mar 6, 2019 - 11:49:53 PM $3,750.00 iFT
Mar 6, 2019 - 11:49:53 PM $3,700.00 ilsgarage
Mar 6, 2019 - 11:49:43 PM $3,550.00 iFT
Mar 6, 2019 - 11:49:43 PM $3,500.00 ilsgarage
Mar 6, 2019 - 8:50:44 PM $3,250.00 iFT
Mar 6, 2019 - 8:50:44 PM $3,200.00 ilsgarage
Mar 5, 2019 - 6:26:05 PM $3,050.00 iFT
Mar 5, 2019 - 6:26:05 PM $3,000.00 ifowlerranch
Mar 5, 2019 - 6:25:26 PM $2,950.00 ifowlerranch
Mar 5, 2019 - 6:25:26 PM $2,900.00 iFT
Mar 5, 2019 - 5:40:57 PM $2,850.00 ifowlerranch
Mar 5, 2019 - 5:40:57 PM $2,800.00 ilsgarage
Mar 5, 2019 - 10:06:04 AM $2,550.00 ifowlerranch
Mar 5, 2019 - 10:05:16 AM $2,500.00 ilsgarage
Mar 5, 2019 - 10:05:17 AM $2,500.00 ifowlerranch
Mar 5, 2019 - 10:03:02 AM $2,050.00 ilsgarage
Mar 5, 2019 - 10:03:02 AM $2,000.00 ifowlerranch
Mar 5, 2019 - 10:02:49 AM $1,010.00 ifowlerranch
Mar 5, 2019 - 10:02:49 AM $1,000.00 ilsgarage
Mar 5, 2019 - 10:02:42 AM $510.00 ifowlerranch
Mar 5, 2019 - 10:02:42 AM $500.00 ilsgarage
Mar 5, 2019 - 10:02:27 AM $105.00 ifowlerranch
Mar 5, 2019 - 10:02:27 AM $100.00 ilsgarage
Mar 5, 2019 - 10:01:21 AM $5.00 ifowlerranch
Click on any picture to see a larger image.